This is the latest recevied weather packets stored in our database for station/object W1LBM. If no packets are shown the sender has not sent any weather packets the latest 10 day(s).
| Time | Temp. | Humidity | Pressure | Rain* | Wind** | Luminosity | Snow |
|---|---|---|---|---|---|---|---|
| 1778001760 | 22.78° C | 56% | 1012.8 hPa | 0 mm | - | 692 W/m² | - |
| 1778001460 | 22.78° C | 58% | 1012.8 hPa | 0 mm | - | 696 W/m² | - |
| 1778001157 | 22.22° C | 56% | 1012.9 hPa | 0 mm | - | 697 W/m² | - |
| 1778000854 | 22.22° C | 58% | 1012.9 hPa | 0 mm | - | 703 W/m² | - |
| 1778000551 | 22.22° C | 60% | 1012.7 hPa | 0 mm | - | 702 W/m² | - |
| 1778000246 | 21.67° C | 60% | 1012.9 hPa | 0 mm | - | 706 W/m² | - |
| 1777999943 | 21.67° C | 60% | 1013 hPa | 0 mm | - | 704 W/m² | - |
| 1777999638 | 21.11° C | 60% | 1012.9 hPa | 0 mm | - | 704 W/m² | - |
| 1777999336 | 21.11° C | 61% | 1013.2 hPa | 0 mm | - | 705 W/m² | - |
| 1777999034 | 22.22° C | 59% | 1013.4 hPa | 0 mm | - | 703 W/m² | - |
| 1777998732 | 22.22° C | 60% | 1013.2 hPa | 0 mm | - | 703 W/m² | - |
| 1777998429 | 21.67° C | 60% | 1013.2 hPa | 0 mm | - | 703 W/m² | - |
| 1777998126 | 21.67° C | 59% | 1013.2 hPa | 0 mm | - | 698 W/m² | - |
| 1777997823 | 22.22° C | 58% | 1013.5 hPa | 0 mm | - | 699 W/m² | - |
| 1777997520 | 21.67° C | 60% | 1013.5 hPa | 0 mm | - | 695 W/m² | - |
| 1777997218 | 21.11° C | 60% | 1013.6 hPa | 0 mm | - | 692 W/m² | - |
| 1777996915 | 21.67° C | 60% | 1013.7 hPa | 0 mm | - | 689 W/m² | - |
| 1777996611 | 22.22° C | 57% | 1013.7 hPa | 0 mm | - | 688 W/m² | - |
| 1777996308 | 22.22° C | 58% | 1013.7 hPa | 0 mm | - | 686 W/m² | - |
| 1777996004 | 22.22° C | 58% | 1013.8 hPa | 0 mm | - | 699 W/m² | - |
| 1777995700 | 22.78° C | 57% | 1013.7 hPa | 0 mm | - | 731 W/m² | - |
| 1777995397 | 22.78° C | 56% | 1013.8 hPa | 0 mm | - | 679 W/m² | - |
| 1777995094 | 21.67° C | 57% | 1013.7 hPa | 0 mm | - | 687 W/m² | - |
| 1777994791 | 21.67° C | 58% | 1013.6 hPa | 0 mm | - | 492 W/m² | - |
| 1777994487 | 22.22° C | 60% | 1013.7 hPa | 0 mm | - | 509 W/m² | - |
* Rain latest hour (hover to see other rain measurements)
** Current wind speed in m/s (hover to see current wind gust speed)